Overview Statistics Trail Chart Weather Telemetry Raw packets
 

This is the latest recevied weather packets stored in our database for station/object SV9TNF-57. If no packets are shown the sender has not sent any weather packets the latest 10 day(s).

<< 51 52 53 54 55 56 57 >>
Time Temp. Humidity Pressure Rain* Wind** Luminosity Snow
1788316112 25.56° C 51% 994.8 hPa 0 mm 0.89 m/s, 316° - -
1788315812 26.11° C 50% 994.5 hPa 0 mm 0.45 m/s, 289° - -
1788315512 25.56° C 51% 994.9 hPa 0 mm 0.89 m/s, 287° - -
1788315212 25.56° C 51% 994.6 hPa 0 mm 0.89 m/s, 342° - -
1788314913 25.56° C 52% 994.6 hPa 0 mm 0.89 m/s, 298° - -
1788314612 25.56° C 51% 994.5 hPa 0 mm 0 m/s - -
1788314312 25.56° C 51% 994.5 hPa 0 mm 1.34 m/s, 264° - -
1788314012 25.56° C 51% 994.5 hPa 0 mm 0.89 m/s, 284° - -
1788313712 25.56° C 52% 994.5 hPa 0 mm 0 m/s - -
1788313413 25° C 52% 994.7 hPa 0 mm 0 m/s - -
1788313112 25° C 52% 994.5 hPa 0 mm 2.24 m/s, 302° - -
1788312811 25° C 53% 994.4 hPa 0 mm 1.79 m/s, 268° - -
1788312511 25° C 52% 994.5 hPa 0 mm 0 m/s - -
1788312211 25° C 52% 994.4 hPa 0 mm 0 m/s - -
1788311911 25° C 52% 994.6 hPa 0 mm 0.89 m/s, 303° - -
1788311611 25° C 52% 994.4 hPa 0 mm 2.68 m/s, 335° - -
1788311311 25° C 52% 994.5 hPa 0 mm 0 m/s - -
1788311011 25° C 51% 994.8 hPa 0 mm 0 m/s - -
1788310711 25° C 51% 994.6 hPa 0 mm 0 m/s - -
1788310410 25° C 51% 994.5 hPa 0 mm 1.34 m/s, 298° - -
1788310110 25° C 51% 994.5 hPa 0 mm 0 m/s - -
1788309810 25° C 50% 994.5 hPa 0 mm 0 m/s - -
1788309510 25° C 50% 994.7 hPa 0 mm 0.45 m/s, 256° - -
1788309210 25° C 49% 994.6 hPa 0 mm 0.45 m/s, 287° - -
1788308910 25° C 49% 994.7 hPa 0 mm 0.45 m/s, 257° - -

* Rain latest hour (hover to see other rain measurements)
** Current wind speed in m/s (hover to see current wind gust speed)